Location: �terpigny
(49.8910°N, 2.9249°E)
Time: 16:10:55
(UTC+00:00)

Cosmos 2322 Rocket - Pass Details

Date: 24 October 2021
Orbit: 832 x 851 km, 71.0° (Epoch: 03 December)

Event Time Altitude Azimuth Distance (km) Brightness Sun altitude
Rises 18:03:31 0° 194° (SSW) 3,364 5.5 -14.1°
Reaches altitude 10° 18:05:58 10° 191° (S) 2,434 4.8 -14.5°
Maximum altitude 18:11:26 60° 113° (ESE) 952 2.2 -15.4°
Drops below altitude 10° 18:16:58 10° 35° (NE) 2,457 4.3 -16.3°
Enters shadow 18:18:12 - 33° (NNE) 2,922 4.7 -16.5°
